Date/Time (UTC),ProbHail,ProbWind,ProbTor,MESH,VIL Density,Flash Rate,Max Flash Density,LJA sigma-level,Max 0-2km AzShear,LLAZ 98th%,MLAZ 98th%,MUCAPE,MLCAPE,CAPE -10C to -30C,MLCIN,SRH 0-1km AGL,EBShear,MeanWind 0-1km AGL,Norm. Sat. Growth Rate,PWAT,WBZ,AvgBeamHgt,size
2019/05/20 17:54,1,1,3,0.04,0.4,0,0.0,0.0,4,3,1,2906,463,688,0,427,60.4,44.7,0,1.8,11.0,3.4,48
2019/05/20 17:56,1,3,7,0.09,0.4,0,0.0,0.0,5,5,2,2633,590,698,9,450,53.2,44.8,0,1.9,11.1,3.4,43
2019/05/20 17:58,1,16,6,0.09,0.7,0,0.0,0.0,5,5,3,2628,524,703,2,448,55.7,45.1,0,1.9,11.3,3.4,125
2019/05/20 18:00,1,3,6,0.09,0.7,1,0.03,0.0,5,5,3,2595,420,701,2,451,54.0,44.9,0,1.9,11.2,3.3,260
2019/05/20 18:02,1,25,56,0.06,1.0,1,0.04,0.0,30,14,4,2595,386,702,0,452,56.9,45.4,0,1.9,11.5,3.4,301
2019/05/20 18:04,1,25,51,0.11,1.1,2,0.07,0.0,30,19,2,2586,331,702,0,452,57.5,45.5,0,1.9,11.7,3.4,386
2019/05/20 18:06,1,25,51,0.11,1.1,2,0.07,0.0,30,19,3,2588,329,702,0,452,58.1,45.6,0,1.9,11.8,3.4,368
2019/05/20 18:08,1,39,63,0.11,1.1,2,0.07,0.0,30,19,11,2578,258,703,0,454,59.4,45.8,0,1.9,12.0,3.5,390
2019/05/20 18:10,1,44,68,0.11,1.4,2,0.07,0.0,31,28,12,2580,236,703,0,460,60.5,46.0,0,1.9,12.1,3.6,458
2019/05/20 18:12,2,50,70,0.09,1.4,3,0.1,0.0,31,28,13,2600,207,702,0,487,63.1,46.7,0,1.8,12.2,3.8,273
2019/05/20 18:14,2,50,64,0.1,1.4,5,0.11,0.0,31,28,13,2613,183,701,0,499,64.0,47.0,0,1.8,12.2,3.9,279
2019/05/20 18:16,2,46,58,0.1,1.1,5,0.11,0.0,31,27,13,2635,157,701,0,512,64.8,47.3,0,1.8,12.2,4.0,273
2019/05/20 18:18,2,46,53,0.1,1.1,5,0.11,0.0,29,17,4,2655,134,701,0,523,65.1,47.6,0,1.8,12.2,4.1,254
2019/05/20 18:20,2,29,2,0.1,1.1,5,0.11,0.0,4,3,5,2667,117,701,0,530,65.1,47.8,0,1.8,12.2,4.1,218
2019/05/20 18:22,1,25,20,0.09,0.9,3,0.11,0.0,27,25,1,2674,102,702,0,539,65.0,48.0,0,1.8,12.2,4.3,202
2019/05/20 18:24,1,25,20,0.07,0.9,3,0.11,0.0,27,25,1,2676,100,703,0,545,64.9,48.3,0,1.8,12.2,4.4,204
2019/05/20 18:26,1,35,51,0.07,0.9,3,0.11,0.0,27,25,13,2670,91,703,0,549,64.5,48.4,0,1.8,12.2,4.5,269
2019/05/20 18:28,1,35,51,0.07,0.9,2,0.11,0.0,24,18,13,2665,91,703,0,560,64.2,48.8,0,1.8,12.2,4.6,313
2019/05/20 18:30,1,39,51,0.07,1.0,2,0.11,0.0,24,18,11,2641,86,704,0,565,64.0,49.0,0,1.8,12.2,4.7,286
2019/05/20 18:32,2,46,51,0.1,1.1,4,0.11,0.0,20,14,9,2618,81,704,0,566,63.9,49.2,0,1.8,12.2,4.7,293
2019/05/20 18:34,2,55,36,0.14,1.3,4,0.11,0.0,20,14,8,2590,68,704,0,571,63.9,49.4,0,1.8,12.2,4.7,255
2019/05/20 18:36,2,59,47,0.14,1.3,5,0.11,0.0,17,14,16,2580,72,700,1,570,64.0,49.5,0,1.8,12.2,4.9,345
2019/05/20 18:38,2,59,47,0.14,1.3,5,0.11,0.0,17,14,16,2545,60,698,1,574,64.5,49.8,0,1.8,12.2,4.8,359
2019/05/20 18:40,2,59,47,0.11,1.2,6,0.12,0.0,17,14,3,2497,52,691,0,577,66.2,50.1,0,1.8,12.1,4.7,291
2019/05/20 18:42,2,59,47,0.09,1.2,6,0.12,0.0,17,14,5,2439,35,673,0,579,68.7,50.4,0,1.8,12.1,4.6,242
2019/05/20 18:44,2,29,10,0.09,0.9,6,0.12,0.0,15,9,5,2420,26,662,0,581,69.5,50.4,0,1.7,12.1,4.5,480
2019/05/20 18:46,2,29,10,0.09,0.9,6,0.12,0.0,15,9,2,2382,19,648,0,585,70.3,50.5,0,1.7,12.1,4.4,426
2019/05/20 18:48,2,32,10,0.09,1.1,6,0.12,0.0,15,9,2,2347,16,639,0,584,70.8,50.7,0,1.7,12.1,4.4,220
2019/05/20 18:50,2,29,1,0.09,1.1,6,0.16,0.0,7,6,3,2324,10,622,0,587,70.1,50.8,0,1.7,12.1,4.3,218
2019/05/20 18:52,2,29,1,0.08,1.1,6,0.16,0.0,7,6,3,2324,10,622,0,587,70.1,50.8,0,1.7,12.1,4.3,218
2019/05/20 18:54,2,21,1,0.11,0.8,5,0.16,0.0,7,6,3,2540,100,696,3,747,66.4,49.1,0,1.8,12.0,4.1,276
2019/05/20 18:56,2,21,1,0.13,0.9,5,0.16,0.0,5,4,3,2537,89,694,3,749,66.5,49.7,0,1.8,12.0,4.1,235
2019/05/20 18:58,1,25,3,0.15,0.9,2,0.16,0.0,5,4,7,2540,63,694,3,748,66.1,50.0,0,1.8,12.0,4.0,482
2019/05/20 19:00,2,21,2,0.15,1.1,4,0.16,0.0,13,3,4,2543,46,695,1,749,65.9,50.5,0,1.8,12.0,3.8,263
2019/05/20 19:02,2,23,2,0.24,1.1,4,0.16,0.0,13,3,4,2537,37,693,1,750,65.7,50.7,0,1.8,12.0,3.8,235
2019/05/20 19:04,2,23,1,0.24,1.1,5,0.16,0.0,3,2,9,2512,26,689,0,755,65.4,51.2,0,1.7,12.0,3.7,228
2019/05/20 19:06,2,23,1,0.25,1.4,6,0.16,0.0,3,2,4,2483,21,688,1,755,65.3,51.4,0,1.7,12.0,3.6,411
2019/05/20 19:08,3,33,2,0.25,1.4,9,0.23,0.0,9,3,4,2448,17,686,1,759,65.4,51.7,0,1.7,12.0,3.7,448
2019/05/20 19:10,3,23,1,0.25,1.4,9,0.23,0.0,7,3,4,2341,9,678,0,764,65.4,52.0,0,1.7,11.9,3.6,496
2019/05/20 19:12,3,8,1,0.24,0.9,9,0.23,0.0,4,3,4,2291,8,672,0,761,65.7,52.1,0,1.7,11.9,3.6,450
2019/05/20 19:14,3,7,1,0.15,0.9,9,0.23,0.0,4,3,4,2291,8,672,0,761,65.7,52.1,0,1.7,11.9,3.6,450
2019/05/20 19:16,2,7,1,0.15,1.0,7,0.23,0.0,7,3,5,2224,6,659,0,751,65.8,52.2,0,1.7,11.9,3.6,458
2019/05/20 19:18,2,6,1,0.14,1.0,5,0.23,0.0,7,3,5,2176,4,646,0,741,65.3,52.3,0,1.7,11.9,3.7,446
2019/05/20 19:20,2,21,1,0.14,1.0,5,0.23,0.0,6,4,5,2129,3,633,0,731,64.9,52.3,0,1.7,11.9,3.7,484
2019/05/20 19:22,2,21,1,0.14,1.0,5,0.23,0.0,6,4,5,2077,1,623,0,725,64.4,52.2,0,1.7,11.8,3.7,435
2019/05/20 19:24,2,29,1,0.16,1.0,11,0.23,7.5,6,4,5,2028,1,613,0,716,63.7,52.2,0,1.7,11.8,3.9,415
2019/05/20 19:26,2,29,1,0.16,1.0,11,0.23,0.0,6,4,5,1993,0,605,0,709,63.3,52.2,0,1.7,11.8,4.0,397
2019/05/20 19:28,2,7,1,0.16,1.0,11,0.23,0.0,6,4,4,1980,0,603,999,708,63.5,52.2,0,1.7,11.7,3.8,210
2019/05/20 19:30,2,32,2,0.19,1.0,11,0.23,0.0,8,6,4,1968,0,598,999,701,63.4,52.0,0,1.7,11.6,3.8,202
2019/05/20 19:32,2,32,2,0.25,1.2,7,0.23,0.0,8,6,5,1937,0,589,999,669,62.2,51.0,0,1.7,11.0,4.0,103
2019/05/20 19:34,2,32,2,0.25,1.2,7,0.23,0.0,8,6,5,1937,0,589,999,669,62.2,51.0,0,1.7,11.0,4.0,103
2019/05/20 19:36,3,33,2,0.26,1.2,4,0.23,0.0,8,6,5,1938,0,589,999,666,62.2,50.9,0,1.7,10.9,4.1,209
2019/05/20 19:38,3,32,2,0.26,1.2,4,0.23,0.0,7,7,5,1932,0,587,999,648,61.9,50.3,0,1.6,10.6,4.2,220
2019/05/20 19:40,4,32,2,0.26,1.2,4,0.23,0.0,7,7,4,1927,0,586,999,633,61.6,49.9,0,1.6,10.4,4.3,234
2019/05/20 19:42,4,32,2,0.26,1.2,4,0.23,0.0,7,7,5,1924,0,584,999,619,61.6,49.4,0,1.6,10.2,4.3,201
2019/05/20 19:44,5,32,2,0.26,1.2,4,0.23,0.0,7,7,4,1915,0,582,999,604,61.4,49.0,0,1.6,10.0,4.5,228
2019/05/20 19:46,1,25,1,0.11,0.9,2,0.23,0.0,7,6,4,1911,0,581,999,593,61.6,48.6,0,1.6,9.9,4.5,241
2019/05/20 19:48,1,25,4,0.1,1.0,1,0.23,0.0,12,6,4,1887,0,575,999,565,61.5,47.6,0,1.6,9.8,4.7,284
2019/05/20 19:50,1,25,5,0.07,1.0,1,0.23,0.0,8,7,4,1881,0,573,999,555,61.9,47.2,0,1.6,9.7,4.7,224
2019/05/20 19:52,1,25,5,0.09,1.0,1,0.23,0.0,8,7,4,2133,5,572,0,557,63.6,45.6,0,1.7,10.5,4.9,218
2019/05/20 19:54,1,25,3,0.11,0.9,0,0.23,0.0,8,7,6,2054,3,551,0,538,64.5,45.2,0,1.7,10.2,5.1,206
2019/05/20 19:56,1,29,3,0.21,0.9,0,0.18,0.0,9,7,6,2017,2,541,0,532,65.1,45.0,0,1.7,9.9,5.1,208
2019/05/20 19:58,1,31,3,0.28,1.1,0,0.18,0.0,9,7,5,1985,2,536,0,528,65.0,44.9,0,1.7,9.9,5.2,182
2019/05/20 20:00,1,31,3,0.28,1.1,0,0.18,0.0,9,7,5,1945,1,525,0,523,65.3,44.5,0,1.7,9.6,5.3,133
2019/05/20 20:02,1,29,3,0.28,1.1,0,0.16,0.0,9,7,5,1887,0,511,0,519,65.4,44.3,0,1.7,9.4,5.5,73
2019/05/20 20:04,1,22,3,0.0,0.9,0,0.16,0.0,9,7,6,1899,0,511,0,521,65.4,44.2,0,1.7,9.4,5.4,122
2019/05/20 20:06,1,12,3,0.0,0.9,0,0.12,0.0,7,6,5,1550,0,441,0,527,64.2,42.8,0,1.7,8.8,6.1,261
2019/05/20 20:08,1,12,11,0.0,0.6,0,0.12,0.0,13,11,4,1644,0,452,0,525,63.9,43.1,0,1.6,8.6,5.8,165
2019/05/20 20:10,1,2,11,0.0,0.6,0,0.04,0.0,13,11,4,1495,0,418,0,533,62.1,42.5,0,1.6,8.4,6.0,197
2019/05/20 20:12,1,2,11,0.0,0.7,1,0.04,0.0,13,11,5,1222,0,378,0,556,58.5,41.2,0,1.6,8.2,6.0,332
2019/05/20 20:14,1,12,17,0.0,0.7,1,0.04,0.0,14,11,8,1321,0,391,0,546,58.9,41.8,0,1.6,8.2,5.8,200
2019/05/20 20:16,1,12,17,0.0,0.7,1,0.04,0.0,14,11,7,1175,0,372,0,561,57.9,41.1,0,1.6,8.1,5.7,198
2019/05/20 20:18,1,12,17,0.0,0.4,1,0.04,0.0,14,11,8,1272,0,387,0,550,56.9,42.0,0,1.6,8.1,5.6,85
2019/05/20 20:20,1,12,5,0.0,0.5,0,0.04,0.0,10,8,5,1096,0,359,0,571,56.5,40.8,0,1.6,8.1,5.4,171
